[[{"header":{"parameterUnit":"m.s-1","parameterCategory":1,"la1":30.2991,"la2":30.254,"lo1":-89.0895,"lo2":-89.0444,"dy":0.0017,"dx":0.0017,"nx":28,"ny":28,"refTime":"2024-02-23T03:00:00:Z","depth":0,"parameterNumber":2,"parameterNumberName":"U-component_of_WINDS"},"data":[0,0,0,0,0,0,0,0,0,0,0,0,0,0,0,0,0,0,0,0,0,0,0,0,0,0,0,0,0,0,0,0,0,0,0,0,0,0,0,0,0,0,0,0,0,0,0,0,0,0,0,0,0,0,0,0,0,0,2.783,2.7831,0,2.7872,2.7872,2.7873,2.784,2.7839,2.7838,2.7836,2.788,2.7883,2.7885,0,0,0,0,0,0,0,0,0,0,0,0,0,2.7725,2.7728,2.783,2.7831,2.7831,2.7872,2.7872,2.7873,2.7841,2.7839,2.7837,2.7836,2.7879,2.7882,2.7885,0,0,0,0,0,0,0,0,0,0,0,0,0,2.7769,2.7728,2.783,2.782,2.782,2.7872,2.7872,2.7873,2.7841,2.7839,2.7837,2.7835,2.7878,2.7882,2.7886,2.795,0,0,2.7897,2.7899,0,0,0,0,0,0,0,0,2.7767,2.7773,2.7821,2.7821,2.782,2.7849,2.7851,2.7899,2.7842,2.7833,2.7836,2.7834,2.7872,2.7876,2.7888,2.7952,2.7954,2.7897,2.79,2.7901,2.7902,0,0,0,0,0,0,0,2.7764,2.7771,2.7847,2.7822,2.7821,2.7814,2.7818,2.786,2.7864,2.7834,2.7831,2.7837,2.7871,2.7885,2.7889,2.7955,2.7897,2.79,2.7903,2.7904,2.8076,2.8078,0,0,0,0,0,0,2.7762,2.7769,2.7845,2.7848,2.7788,2.7818,2.7822,2.7842,2.7863,2.7864,2.7838,2.7835,2.7879,2.7885,2.789,2.7968,2.7901,2.7905,2.7907,2.8074,2.8077,2.8079,0,0,0,0,0,0,2.776,2.7769,2.7844,2.7808,2.7817,2.7822,2.7844,2.7844,2.7857,2.7867,2.7867,2.7852,2.7878,2.7885,2.7936,2.7969,2.7906,2.791,2.8071,2.8075,2.8078,2.8125,0,0,0,0,0,0,2.7757,2.7768,2.7792,2.7809,2.7819,2.7888,2.7846,2.7846,2.7864,2.786,2.7879,2.788,2.7877,2.7931,2.794,2.7973,2.7912,2.8068,2.8073,2.8077,2.812,2.8129,2.8137,0,0,0,0,0,2.7753,2.7803,2.7793,2.7803,2.7849,2.789,2.7896,2.789,2.7866,2.7891,2.7897,2.788,2.7964,2.7936,2.7946,2.7981,2.8066,2.8071,2.8076,2.8116,2.8127,2.8137,0,0,0,0,0,0,2.7791,2.7805,2.7794,2.7852,2.787,2.7884,2.7915,2.7902,2.7928,2.7923,2.7916,2.792,2.7974,2.7983,2.7951,2.8046,2.8011,2.8019,2.8038,2.8049,2.8057,2.8054,2.7916,0,0,0,0,0,2.7806,2.7837,2.7849,2.7898,2.7908,2.791,2.7928,2.7922,2.7941,2.7948,2.7958,2.7978,2.8009,2.8029,2.8058,2.8121,2.8126,2.8151,2.8159,2.8166,2.8173,2.8208,2.822,2.8096,2.8096,2.8096,0,0,2.7837,2.7849,2.7869,2.7906,2.7919,2.7953,2.7917,2.7954,2.7979,2.7954,2.8003,2.8011,2.8032,2.809,2.8116,2.8099,2.8208,2.8173,2.8178,2.8181,2.8215,2.8227,2.8237,2.81,2.8099,2.8099,0,0,2.7911,2.7923,2.7966,2.7981,2.8002,2.8003,2.8014,2.803,2.8035,2.8084,2.8066,2.8097,2.815,2.8166,2.8181,2.8264,2.8249,2.8274,2.8318,2.8353,2.8363,2.8372,2.8402,2.8413,2.828,2.828,2.828,0,2.7948,2.7997,2.799,2.8029,2.8046,2.8025,2.807,2.8084,2.8114,2.8127,2.8107,2.8175,2.8187,2.8249,2.827,2.8282,2.8295,2.8271,2.8362,2.8371,2.8379,2.8408,2.8419,2.8283,2.8283,2.8283,2.8282,0,2.8042,2.8076,2.8109,2.8138,2.8159,2.82,2.8201,2.8223,2.8216,2.822,2.8271,2.8285,2.8318,2.8332,2.8325,2.8394,2.8383,2.8363,2.8328,2.8393,2.8421,2.8432,2.8287,2.8286,2.8285,2.8285,0,0,2.814,2.8166,2.8178,2.8192,2.8214,2.8241,2.8282,2.8314,2.8334,2.8355,2.839,2.8437,2.8419,2.8436,2.8431,2.8462,2.8528,2.8438,2.8439,2.8455,2.8606,2.8621,2.8634,2.8518,2.852,2.8522,2.8604,0,2.8216,2.8287,2.8283,2.835,2.8383,2.8365,2.8401,2.8419,2.8424,2.8454,2.8459,2.8493,2.8466,2.8477,2.8506,2.8514,2.8558,2.8508,2.8552,2.8554,2.8548,2.8648,2.8664,2.8741,2.8615,2.8617,2.8618,0,2.8315,2.834,2.841,2.8429,2.8443,2.8475,2.8505,2.8533,2.8553,2.8555,2.8575,2.8566,2.8609,2.8573,2.8633,2.8598,2.8616,2.8623,2.8626,2.863,2.859,2.8656,2.8765,2.8777,2.8634,2.8633,2.8632,0,2.8381,2.8432,2.8482,2.8494,2.8517,2.854,2.8551,2.8569,2.8589,2.8615,2.8628,2.8659,2.8676,2.87,2.87,2.8674,2.8761,2.8725,2.8765,2.8765,2.8784,2.8783,2.8899,2.8795,2.8795,2.8794,2.8794,0,2.8467,2.8511,2.8512,2.8542,2.8592,2.8587,2.8636,2.8645,2.8662,2.8694,2.868,2.8711,2.8709,2.874,2.874,2.8791,2.8798,2.8802,2.8801,2.8803,2.8803,2.8815,2.881,2.8798,2.8797,2.8796,2.8796,0,2.8549,2.8551,2.8604,2.8622,2.8627,2.8663,2.8679,2.8708,2.8712,2.8754,2.8763,2.877,2.8807,2.8809,2.8851,2.8852,2.8913,2.8906,2.8906,2.8905,2.8945,2.8942,2.9074,2.9091,2.8975,2.8976,2.8977,0,2.8604,2.8638,2.8659,2.868,2.8692,2.8726,2.8746,2.8743,2.8765,2.8792,2.8819,2.8854,2.8882,2.8942,2.8951,2.8984,2.8979,2.9023,2.8983,2.8985,2.8981,2.8979,2.8983,2.903,2.9032,2.9033,2.9033,0,2.8702,2.8702,2.8731,2.8762,2.8787,2.8811,2.8833,2.8851,2.8851,2.8876,2.8914,2.8935,2.8979,2.9015,2.9047,2.9059,2.9047,2.9046,2.9057,2.906,2.9058,2.9061,2.8928,2.9043,2.9042,2.9041,2.9041,2.904,2.8773,2.8803,2.8823,2.8857,2.8873,2.8895,2.8924,2.8932,2.8963,2.8998,2.8995,2.9037,2.9058,2.91,2.9115,2.9148,2.9133,2.9149,2.9153,2.9158,2.9162,2.9053,2.9154,2.9154,2.9154,2.9153,2.9153,0,2.8871,2.8883,2.8914,2.8946,2.8974,2.8959,2.8984,2.9008,2.9045,2.9066,2.9094,2.9138,2.9173,2.9185,2.922,2.9244,2.924,2.9254,2.9252,2.9255,2.9173,2.9161,2.9257,2.9257,2.9257,2.9257,2.9257,2.9257,2.8925,2.8975,2.8977,2.9036,2.9048,2.9089,2.9104,2.9125,2.9142,2.9191,2.922,2.9228,2.9246,2.9282,2.9314,2.9317,2.9331,2.9347,2.9348,2.9271,2.9261,2.9251,2.9239,2.935,2.935,2.9427,2.9428,2.9429]},{"header":{"parameterUnit":"m.s-1","parameterCategory":1,"la1":30.2991,"la2":30.254,"lo1":-89.0895,"lo2":-89.0444,"dy":0.0017,"dx":0.0017,"nx":28,"ny":28,"refTime":"2024-02-23T03:00:00:Z","depth":0,"parameterNumber":3,"parameterNumberName":"V-component_of_WINDS"},"data":[0,0,0,0,0,0,0,0,0,0,0,0,0,0,0,0,0,0,0,0,0,0,0,0,0,0,0,0,0,0,0,0,0,0,0,0,0,0,0,0,0,0,0,0,0,0,0,0,0,0,0,0,0,0,0,0,0,0,-2.0664,-2.0665,0,-2.0694,-2.0694,-2.0695,-2.0701,-2.0701,-2.0701,-2.0701,-2.0732,-2.0732,-2.0733,0,0,0,0,0,0,0,0,0,0,0,0,0,-2.0616,-2.0617,-2.0664,-2.0665,-2.0665,-2.0694,-2.0694,-2.0695,-2.0701,-2.0701,-2.0701,-2.0701,-2.0731,-2.0732,-2.0734,0,0,0,0,0,0,0,0,0,0,0,0,0,-2.064,-2.0617,-2.0664,-2.0672,-2.0673,-2.0694,-2.0694,-2.0695,-2.0702,-2.0701,-2.0701,-2.0701,-2.0731,-2.0732,-2.0734,-2.0749,0,0,-2.0738,-2.0739,0,0,0,0,0,0,0,0,-2.0639,-2.0642,-2.0671,-2.0672,-2.0673,-2.0694,-2.0688,-2.0713,-2.0702,-2.0691,-2.0701,-2.0701,-2.0719,-2.0722,-2.0728,-2.075,-2.0752,-2.0738,-2.0739,-2.074,-2.074,0,0,0,0,0,0,0,-2.0637,-2.0641,-2.0676,-2.0671,-2.0672,-2.0675,-2.0678,-2.0693,-2.0706,-2.0692,-2.0692,-2.0696,-2.072,-2.0726,-2.0729,-2.0752,-2.0738,-2.074,-2.0741,-2.0741,-2.0791,-2.0791,0,0,0,0,0,0,-2.0634,-2.0639,-2.0675,-2.0677,-2.0655,-2.0676,-2.0679,-2.0687,-2.0706,-2.0709,-2.0696,-2.0696,-2.0724,-2.0727,-2.073,-2.075,-2.074,-2.0741,-2.0742,-2.079,-2.0791,-2.0791,0,0,0,0,0,0,-2.0633,-2.0637,-2.0674,-2.0658,-2.0663,-2.0677,-2.0686,-2.0688,-2.0695,-2.0709,-2.0712,-2.07,-2.0724,-2.0728,-2.0745,-2.0751,-2.0742,-2.0743,-2.079,-2.0791,-2.0791,-2.079,0,0,0,0,0,0,-2.0632,-2.0637,-2.0642,-2.0658,-2.0664,-2.0688,-2.0686,-2.0689,-2.0697,-2.0697,-2.0714,-2.0716,-2.0724,-2.0742,-2.0746,-2.0753,-2.0745,-2.0789,-2.079,-2.0791,-2.0789,-2.079,-2.0791,0,0,0,0,0,-2.063,-2.064,-2.0642,-2.0647,-2.0671,-2.0688,-2.0691,-2.07,-2.0698,-2.0704,-2.0713,-2.0716,-2.075,-2.0744,-2.0748,-2.0756,-2.0789,-2.079,-2.0791,-2.0789,-2.079,-2.0791,0,0,0,0,0,0,-2.0624,-2.0643,-2.0645,-2.0661,-2.0673,-2.0689,-2.0697,-2.07,-2.0713,-2.0713,-2.0723,-2.0727,-2.0743,-2.0751,-2.0744,-2.0773,-2.0769,-2.0771,-2.0767,-2.0768,-2.0769,-2.0767,-2.0746,0,0,0,0,0,-2.0625,-2.0637,-2.0652,-2.0665,-2.0671,-2.0683,-2.0691,-2.0696,-2.0709,-2.0714,-2.0725,-2.0738,-2.0751,-2.076,-2.0773,-2.0791,-2.0795,-2.0798,-2.0799,-2.08,-2.0801,-2.0813,-2.0815,-2.0794,-2.0794,-2.0794,0,0,-2.0626,-2.0638,-2.0645,-2.0664,-2.0674,-2.0687,-2.0687,-2.07,-2.071,-2.0716,-2.0733,-2.0742,-2.0756,-2.0774,-2.0782,-2.0781,-2.0808,-2.0801,-2.0801,-2.0803,-2.0814,-2.0816,-2.0817,-2.0795,-2.0795,-2.0795,0,0,-2.0636,-2.0645,-2.0657,-2.0668,-2.0683,-2.0691,-2.0694,-2.071,-2.0716,-2.0733,-2.0738,-2.0751,-2.0773,-2.0784,-2.0793,-2.0808,-2.0811,-2.0812,-2.0817,-2.0828,-2.083,-2.0831,-2.0838,-2.084,-2.0814,-2.0814,-2.0814,0,-2.0635,-2.0655,-2.0663,-2.0677,-2.0686,-2.0692,-2.0705,-2.0715,-2.0734,-2.074,-2.0738,-2.0769,-2.0779,-2.08,-2.0804,-2.081,-2.0815,-2.081,-2.0829,-2.083,-2.0832,-2.0838,-2.084,-2.0814,-2.0814,-2.0814,-2.0814,0,-2.0654,-2.0668,-2.0676,-2.0694,-2.0704,-2.0717,-2.0729,-2.0738,-2.0743,-2.0752,-2.077,-2.0783,-2.08,-2.0805,-2.081,-2.0827,-2.0826,-2.0826,-2.0824,-2.0834,-2.084,-2.0842,-2.0814,-2.0814,-2.0814,-2.0814,0,0,-2.066,-2.0684,-2.0687,-2.0696,-2.0714,-2.0725,-2.0739,-2.0755,-2.0763,-2.0777,-2.0789,-2.0809,-2.081,-2.082,-2.0826,-2.0836,-2.0849,-2.0835,-2.0836,-2.0838,-2.087,-2.087,-2.0873,-2.0851,-2.0852,-2.0852,-2.0869,0,-2.0672,-2.0697,-2.0706,-2.0727,-2.074,-2.0747,-2.0759,-2.0772,-2.0781,-2.0794,-2.0804,-2.0819,-2.0818,-2.0824,-2.0834,-2.0845,-2.0855,-2.0844,-2.0864,-2.0864,-2.086,-2.0876,-2.0875,-2.0891,-2.0872,-2.0872,-2.0872,0,-2.0688,-2.0702,-2.0725,-2.0742,-2.0748,-2.0759,-2.0776,-2.0788,-2.0803,-2.0809,-2.0821,-2.0827,-2.0843,-2.084,-2.0863,-2.0855,-2.0864,-2.087,-2.0871,-2.0874,-2.0869,-2.0879,-2.0896,-2.0899,-2.0876,-2.0876,-2.0876,0,-2.0691,-2.0716,-2.0732,-2.074,-2.0761,-2.0769,-2.0778,-2.0793,-2.0803,-2.0818,-2.0824,-2.0841,-2.085,-2.0863,-2.0874,-2.087,-2.0896,-2.0893,-2.0903,-2.0902,-2.0908,-2.0907,-2.0927,-2.0913,-2.0913,-2.0913,-2.0912,0,-2.0704,-2.0717,-2.0734,-2.0744,-2.076,-2.0771,-2.0787,-2.0797,-2.081,-2.0823,-2.0831,-2.0843,-2.0856,-2.0871,-2.0879,-2.0898,-2.0902,-2.0908,-2.091,-2.0907,-2.0907,-2.0913,-2.0913,-2.0913,-2.0913,-2.0913,-2.0913,0,-2.0709,-2.0721,-2.074,-2.0759,-2.0764,-2.0775,-2.0791,-2.0802,-2.0812,-2.0829,-2.0833,-2.0849,-2.0866,-2.0878,-2.09,-2.0906,-2.0927,-2.0928,-2.0921,-2.0923,-2.0932,-2.0931,-2.0956,-2.0961,-2.0943,-2.0943,-2.0943,0,-2.0716,-2.0727,-2.0747,-2.0757,-2.0766,-2.0781,-2.0791,-2.0803,-2.0814,-2.0833,-2.0842,-2.086,-2.0875,-2.0903,-2.0916,-2.0934,-2.0937,-2.0945,-2.0939,-2.0937,-2.0938,-2.0937,-2.0939,-2.0945,-2.0945,-2.0945,-2.0946,0,-2.0728,-2.0734,-2.0749,-2.0766,-2.0778,-2.0792,-2.0806,-2.0814,-2.0828,-2.084,-2.0858,-2.087,-2.0893,-2.0912,-2.0931,-2.0941,-2.0946,-2.0947,-2.0951,-2.0948,-2.0944,-2.0947,-2.0924,-2.0947,-2.0946,-2.0946,-2.0946,-2.0946,-2.0735,-2.0746,-2.0762,-2.0779,-2.0791,-2.0804,-2.0816,-2.0828,-2.0843,-2.0863,-2.0869,-2.0888,-2.0905,-2.0931,-2.0942,-2.0958,-2.0958,-2.0962,-2.0963,-2.0964,-2.0965,-2.0941,-2.0961,-2.0961,-2.0961,-2.0961,-2.0961,0,-2.0748,-2.076,-2.0775,-2.0795,-2.0808,-2.0812,-2.0828,-2.084,-2.0856,-2.0871,-2.0886,-2.0908,-2.0926,-2.0942,-2.0961,-2.0971,-2.0974,-2.0976,-2.0975,-2.0978,-2.0963,-2.0959,-2.0973,-2.0973,-2.0973,-2.0973,-2.0973,-2.0973,-2.0757,-2.0775,-2.0783,-2.0808,-2.0819,-2.0838,-2.0847,-2.086,-2.0873,-2.0897,-2.0912,-2.0922,-2.0938,-2.0959,-2.0976,-2.098,-2.0987,-2.0989,-2.0994,-2.098,-2.0979,-2.0977,-2.0973,-2.099,-2.099,-2.1007,-2.1007,-2.1007]}]]